Tracking 19709 objects as of 18-Jun-2019
HD Live streaming from Space Station
objects crossing your sky now

SL-8 DEB

Track SL-8 DEB now!
10-day predictions


NORAD ID: 39691
Int'l Code: 1991-009DE
Perigee: 1,481.2 km
Apogee: 1,706.2 km
Inclination: 74.1 °
Period: 117.9 minutes
Semi major axis: 7964 km
RCS: 0.0212 m2 (small)
Launch date: February 12, 1991
Source: Commonwealth of Independent States (former USSR) (CIS)
Launch site: PLESETSK MISSILE AND SPACE COMPLEX (PKMTR)

Note: This is SATELLITE DEBRIS
aabbcc
Your satellite tracking list
Your tracking list is empty




NASA's NSSDC Master Catalog

Two Line Element Set (TLE):
1 39691U 91009DE  19160.52440385  .00000004  00000-0  17283-3 0  9993
2 39691  74.0539 197.0928 0141306 337.6191  21.8717 12.21375075247528
Source of the keplerian elements: AFSPC